sat.trackr.live / text

‹ back to catalog

STARLINK-37156

NORAD 68263 · 2026-055B

PAYLOAD ACTIVE UNKNOWN

§ Identity

Operator
Country
US
Launch date
2026-03-19
Launch site
AFETR
Launch vehicle
Mass (kg)
RCS (m²)

Purposes: comms

External: N2YO · Heavens-Above · Gunter

§ Orbital elements

Epoch: 2026-05-24T18:57:23.186880Z

Period
93.85 min
Inclination
53.1588°
Eccentricity
0.0000957
Mean motion
15.34392126 rev/d
Perigee alt
462.1 km
Apogee alt
463.4 km
Semi-major
6,840.9 km
B*
8.0460e-4
RAAN
326.4068°
Arg perigee
89.1108°
Mean anomaly
271.0004°
Rev number
1,157

§ Raw data

STARLINK-371561 68263U 26055B   26144.78985170  .00026899  00000+0  80460-3 0  99992 68263  53.1588 326.4068 0000957  89.1108 271.0004 15.34392126 11578

JSON: /api/v1/satellites/68263 · /tle

For live sub-satellite position, see the globe view (requires WebGL).

§ Visibility from observer

Set your observer location to see the next 7 days of passes ≥ 10°. The values pass through the URL so the page stays shareable.

No JS? Fill the form by hand. The geolocation button needs JavaScript.